Big Piney, WY

9:19 PM MDT on March 29, 2017 (GMT -0600)
Big Piney-Marbleton

Weather History for KBPI - April, 2013

Change the Weather History Date:

Monday, April 15, 2013

  Actual Average Record
Temperature  
Mean Temperature 27 °F 37 °F  
Max Temperature 37 °F 52 °F 66 °F (1988)
Min Temperature 17 °F 22 °F 8 °F (1980)
Degree Days  
Heating Degree Days 38 28  
Month to date heating degree days 458 448  
Since 1 July heating degree days 8440 9143  
Cooling Degree Days 0 0  
Month to date cooling degree days 0 0  
Year to date cooling degree days 0 0  
Moisture  
Dew Point 19 °F    
Average Humidity 68    
Maximum Humidity 92    
Minimum Humidity 44    
Precipitation  
Precipitation 0.01 in 0.02 in 0.35 in (1998)
Month to date precipitation 0.16 0.24  
Year to date precipitation 0.35 1.34  
Sea Level Pressure  
Sea Level Pressure 29.72 in    
Wind  
Wind Speed 9 mph (South)    
Max Wind Speed 25 mph    
Max Gust Speed 31 mph    
Visibility 5 miles    
Events Fog , Snow    
T = Trace of Precipitation, MM = Missing Value Source: NWS Daily Summary

Daily Weather History Graph

Daily Weather History Graph

Search for Another Location

Airport or City:

Trip Planner

Search our weather history database for the weather conditions in past years. The results will help you decide how hot, cold, wet, or windy it might be!

Date:

Astronomy

Apr. 15, 2013 Rise Set
Actual Time 6:38 AM MDT 8:02 PM MDT
Civil Twilight 6:09 AM MDT 8:32 PM MDT
Nautical Twilight 5:34 AM MDT 9:07 PM MDT
Astronomical Twilight 4:56 AM MDT 9:45 PM MDT
Moon 10:03 AM MDT (4/15) 12:21 AM MDT (4/15)
Length of Visible Light 14h 22m
Length of Day
13h 24m
Waxing Crescent, 25% of the Moon is Illuminated
Apr 15
Waxing Crescent
Apr 18
First Quarter
Apr 25
Full
May 2
Last Quarter
May 9
New

Hourly Weather History & Observations

Time (MDT) Temp. Windchill Dew Point Humidity Pressure Visibility Wind Dir Wind Speed Gust Speed Precip Events Conditions
12:53 AM 21.0 °F - 12.9 °F 71% 29.71 in 10.0 mi Calm Calm - N/A   Overcast
1:53 AM 21.0 °F 16.2 °F 12.0 °F 68% 29.68 in 10.0 mi North 3.5 mph - N/A   Partly Cloudy
2:53 AM 19.0 °F - 12.9 °F 77% 29.67 in 10.0 mi Calm Calm - N/A   Clear
3:53 AM 19.9 °F - 14.0 °F 78% 29.66 in 10.0 mi Calm Calm - N/A   Mostly Cloudy
4:53 AM 21.9 °F - 15.1 °F 75% 29.67 in 10.0 mi Calm Calm - N/A   Overcast
5:53 AM 21.0 °F - 14.0 °F 74% 29.68 in 10.0 mi Calm Calm - N/A   Mostly Cloudy
6:15 AM 21.2 °F - 15.8 °F 80% 29.67 in 4.0 mi Calm Calm - 0.00 in Snow Light Snow
6:29 AM 21.2 °F - 15.8 °F 80% 29.67 in 8.0 mi Calm Calm - 0.00 in Snow Light Snow
6:53 AM 21.0 °F - 17.1 °F 85% 29.69 in 5.0 mi Calm Calm - 0.00 in Snow Light Snow
7:24 AM 23.0 °F 17.0 °F 17.6 °F 80% 29.68 in 2.5 mi SSW 4.6 mph - 0.00 in Snow Light Snow
7:33 AM 21.2 °F 14.9 °F 17.6 °F 86% 29.68 in 1.2 mi SSW 4.6 mph - 0.00 in Snow Light Snow
7:53 AM 21.9 °F 17.2 °F 19.0 °F 89% 29.71 in 0.8 mi SSW 3.5 mph - 0.00 in Snow Light Snow
8:09 AM 21.2 °F 16.4 °F 19.4 °F 93% 29.69 in 1.2 mi SSW 3.5 mph - 0.00 in Snow Light Snow
8:46 AM 23.0 °F 18.4 °F 19.4 °F 86% 29.69 in 0.8 mi SSW 3.5 mph - 0.00 in Snow Light Snow
8:53 AM 23.0 °F 18.4 °F 19.9 °F 88% 29.73 in 1.0 mi SSW 3.5 mph - 0.00 in Snow Light Snow
9:02 AM 23.0 °F 18.4 °F 19.4 °F 86% 29.70 in 0.8 mi SSW 3.5 mph - 0.00 in Snow Light Snow
9:36 AM 24.8 °F 16.9 °F 21.2 °F 86% 29.70 in 1.2 mi SSE 6.9 mph - 0.00 in Snow Light Snow
9:47 AM 24.8 °F 17.9 °F 21.2 °F 86% 29.70 in 3.0 mi South 5.8 mph - 0.00 in Snow Light Snow
9:53 AM 26.1 °F 16.8 °F 19.9 °F 78% 29.72 in 4.0 mi SSE 9.2 mph - 0.00 in Snow Light Snow
10:23 AM 26.6 °F 17.5 °F 21.2 °F 80% 29.70 in 2.5 mi South 9.2 mph - 0.00 in Snow Light Snow
10:31 AM 26.6 °F 16.8 °F 21.2 °F 80% 29.70 in 5.0 mi SSE 10.4 mph - 0.00 in Snow Light Snow
10:38 AM 26.6 °F 17.5 °F 21.2 °F 80% 29.70 in 5.0 mi South 9.2 mph - 0.00 in Snow Light Snow
10:44 AM 26.6 °F 16.8 °F 21.2 °F 80% 29.70 in 1.8 mi SSE 10.4 mph - 0.00 in Snow Light Snow
10:53 AM 27.0 °F 15.2 °F 21.9 °F 81% 29.74 in 1.2 mi SSE 15.0 mph - 0.00 in Snow Light Snow
11:00 AM 26.6 °F 16.8 °F 21.2 °F 80% 29.71 in 3.0 mi South 10.4 mph - 0.00 in Snow Light Snow
11:05 AM 26.6 °F 16.8 °F 23.0 °F 86% 29.71 in 1.8 mi SSE 10.4 mph - 0.00 in Snow Light Snow
11:13 AM 26.6 °F 14.3 °F 21.2 °F 80% 29.71 in 1.2 mi SSE 16.1 mph - 0.00 in Snow Light Snow
11:21 AM 26.6 °F 15.2 °F 23.0 °F 86% 29.71 in 2.5 mi South 13.8 mph - 0.00 in Snow Light Snow
11:29 AM 26.6 °F 15.7 °F 21.2 °F 80% 29.71 in 7.0 mi South 12.7 mph - 0.00 in   Overcast
11:40 AM 28.4 °F 18.0 °F 23.0 °F 80% 29.71 in 2.5 mi South 12.7 mph - 0.00 in Snow Light Snow
11:46 AM 28.4 °F 18.5 °F 24.8 °F 86% 29.71 in 1.2 mi South 11.5 mph - 0.00 in Snow Light Snow
11:53 AM 28.0 °F 18.6 °F 24.1 °F 85% 29.74 in 1.0 mi South 10.4 mph - 0.00 in Snow Light Snow
12:01 PM 28.4 °F 17.5 °F 23.0 °F 80% 29.71 in 2.0 mi South 13.8 mph - 0.00 in Snow Light Snow
12:09 PM 30.2 °F 20.2 °F 24.8 °F 80% 29.71 in 6.0 mi South 12.7 mph - 0.00 in   Haze
12:53 PM 30.0 °F 19.5 °F 19.0 °F 64% 29.73 in 9.0 mi South 13.8 mph 18.4 mph 0.00 in Snow Light Snow
1:34 PM 33.8 °F 23.9 °F 19.4 °F 56% 29.69 in 10.0 mi SSE 15.0 mph - 0.00 in   Overcast
1:45 PM 33.8 °F 24.3 °F 19.4 °F 56% 29.69 in 10.0 mi South 13.8 mph 19.6 mph 0.00 in   Overcast
1:53 PM 32.0 °F 23.0 °F 18.0 °F 56% 29.71 in 10.0 mi South 11.5 mph - 0.00 in   Overcast
2:53 PM 35.1 °F 26.4 °F 16.0 °F 46% 29.70 in 10.0 mi South 12.7 mph 19.6 mph 0.00 in   Overcast
3:53 PM 34.0 °F 26.6 °F 15.1 °F 46% 29.70 in 10.0 mi South 9.2 mph 18.4 mph N/A   Overcast
4:53 PM 33.1 °F 25.5 °F 19.0 °F 56% 29.70 in 10.0 mi South 9.2 mph - 0.00 in   Overcast
5:26 PM 30.2 °F 21.3 °F 21.2 °F 69% 29.69 in 0.8 mi South 10.4 mph 31.1 mph 0.00 in Snow Light Snow
5:43 PM 28.4 °F 15.8 °F 23.0 °F 80% 29.71 in 0.8 mi SSE 18.4 mph 24.2 mph 0.00 in Snow Light Snow
5:53 PM 28.0 °F 14.6 °F 23.0 °F 81% 29.75 in 0.5 mi South 20.7 mph 24.2 mph 0.00 in Snow Snow
6:03 PM 28.4 °F 15.4 °F 23.0 °F 80% 29.71 in 0.5 mi South 19.6 mph 26.5 mph 0.00 in Snow Snow
6:53 PM 26.1 °F 13.6 °F 23.0 °F 88% 29.79 in 0.2 mi South 16.1 mph - 0.00 in Fog , Snow Heavy Snow
7:14 PM 24.8 °F 10.7 °F 21.2 °F 86% 29.74 in 0.2 mi SSE 19.6 mph 27.6 mph 0.01 in Fog , Snow Heavy Snow
7:30 PM 24.8 °F 11.9 °F 21.2 °F 86% 29.75 in 0.5 mi SSE 16.1 mph - 0.01 in Fog , Snow Snow
7:38 PM 24.8 °F 11.9 °F 21.2 °F 86% 29.75 in 1.0 mi SSE 16.1 mph - 0.01 in Snow Light Snow
7:53 PM 24.1 °F 12.5 °F 19.0 °F 81% 29.81 in 4.0 mi SSE 12.7 mph - 0.01 in Snow Light Snow
8:25 PM 24.8 °F 15.3 °F 17.6 °F 74% 29.76 in 10.0 mi South 9.2 mph - 0.00 in   Overcast
8:34 PM 24.8 °F 12.4 °F 17.6 °F 74% 29.76 in 10.0 mi South 15.0 mph 18.4 mph 0.00 in   Overcast
8:53 PM 25.0 °F 13.1 °F 15.1 °F 66% 29.82 in 10.0 mi South 13.8 mph 25.3 mph 0.00 in   Overcast
9:07 PM 24.8 °F 11.9 °F 15.8 °F 69% 29.77 in 10.0 mi SSE 16.1 mph 24.2 mph N/A   Overcast
9:53 PM 21.9 °F 11.0 °F 17.1 °F 82% 29.79 in 10.0 mi ESE 10.4 mph 21.9 mph N/A   Scattered Clouds
10:53 PM 24.1 °F 15.2 °F 19.9 °F 84% 29.78 in 10.0 mi SE 8.1 mph - N/A   Overcast
11:17 PM 24.8 °F 16.1 °F 19.4 °F 80% 29.76 in 4.0 mi SSE 8.1 mph - 0.00 in Snow Light Snow
11:42 PM 24.8 °F 12.9 °F 17.6 °F 74% 29.77 in 8.0 mi South 13.8 mph - 0.00 in Snow Light Snow
11:53 PM 21.9 °F 11.7 °F 17.1 °F 82% 29.82 in 9.0 mi SSE 9.2 mph - 0.00 in   Overcast